[[{"header":{"parameterUnit":"m.s-1","parameterCategory":2,"la1":30.2991,"la2":30.254,"lo1":-89.0895,"lo2":-89.0444,"dy":0.0017,"dx":0.0017,"nx":28,"ny":28,"refTime":"2025-07-22T09:00:00:Z","depth":"0","parameterNumber":2,"parameterNumberName":"U-component_of_CURRENTS"},"data":[0,0,0,0,0,0,0,0,0,0,0,0,0,0,0,0,0,0,0,0,0,0,0,0,0,0,0,0,0,0,0,0,0,0,0,0,0,0,0,0,0,0,0,0,0,0,0,0,0,0,0,0,0,0,0,0,0,0,-0.2928,-0.2929,0,-0.3036,-0.3037,-0.3037,-0.3072,-0.3072,-0.3072,-0.3072,-0.3031,-0.303,-0.3029,0,0,0,0,0,0,0,0,0,0,0,0,0,-0.2678,-0.2682,-0.2927,-0.2929,-0.2931,-0.3036,-0.3037,-0.3038,-0.3072,-0.3072,-0.3072,-0.3072,-0.3032,-0.303,-0.3029,0,0,0,0,0,0,0,0,0,0,0,0,0,-0.2781,-0.2684,-0.2927,-0.2964,-0.2969,-0.3035,-0.3037,-0.3038,-0.3072,-0.3072,-0.3072,-0.3072,-0.3032,-0.3031,-0.3029,-0.302,0,0,-0.3024,-0.3023,0,0,0,0,0,0,0,0,-0.2775,-0.279,-0.2957,-0.2962,-0.2968,-0.3045,-0.2934,-0.3026,-0.3072,-0.3027,-0.3072,-0.3072,-0.3025,-0.3024,-0.304,-0.3018,-0.3016,-0.3024,-0.3023,-0.3022,-0.3022,0,0,0,0,0,0,0,-0.2768,-0.2785,-0.2965,-0.2959,-0.2966,-0.2952,-0.2966,-0.2952,-0.3018,-0.3031,-0.3035,-0.3056,-0.3026,-0.3041,-0.3038,-0.3016,-0.3024,-0.3023,-0.3022,-0.3021,-0.2997,-0.2997,0,0,0,0,0,0,-0.277,-0.2779,-0.2962,-0.2969,-0.2875,-0.2957,-0.2973,-0.3016,-0.3022,-0.3026,-0.3056,-0.3057,-0.3044,-0.304,-0.3037,-0.3025,-0.3022,-0.3021,-0.302,-0.2996,-0.2997,-0.2997,0,0,0,0,0,0,-0.2765,-0.2787,-0.2957,-0.2878,-0.29,-0.2962,-0.3009,-0.3018,-0.3038,-0.3043,-0.3043,-0.3067,-0.3044,-0.3039,-0.3037,-0.3024,-0.302,-0.3019,-0.2996,-0.2996,-0.2997,-0.3001,0,0,0,0,0,0,-0.2758,-0.2784,-0.28,-0.288,-0.2905,-0.2989,-0.301,-0.302,-0.3053,-0.3055,-0.3052,-0.3049,-0.3043,-0.3039,-0.3035,-0.3021,-0.3018,-0.2996,-0.2996,-0.2997,-0.3001,-0.3002,-0.3003,0,0,0,0,0,-0.2749,-0.2767,-0.2801,-0.2822,-0.2931,-0.299,-0.3,-0.3039,-0.3053,-0.3056,-0.3068,-0.3049,-0.3039,-0.3039,-0.3033,-0.3019,-0.2995,-0.2996,-0.2997,-0.3001,-0.3002,-0.3003,0,0,0,0,0,0,-0.2662,-0.2776,-0.2813,-0.2866,-0.2924,-0.2997,-0.3001,-0.304,-0.3055,-0.3044,-0.3056,-0.3054,-0.3047,-0.3036,-0.3035,-0.3016,-0.3012,-0.3012,-0.3017,-0.3018,-0.3019,-0.3002,-0.3016,0,0,0,0,0,-0.2656,-0.2693,-0.2801,-0.2831,-0.2866,-0.2936,-0.2961,-0.2991,-0.3026,-0.3034,-0.3048,-0.3047,-0.3046,-0.3036,-0.3032,-0.3018,-0.2984,-0.3005,-0.3006,-0.3007,-0.2992,-0.2961,-0.2958,-0.2999,-0.2999,-0.2999,0,0,-0.262,-0.2692,-0.2707,-0.2813,-0.2858,-0.29,-0.2948,-0.298,-0.3009,-0.3021,-0.3046,-0.305,-0.3046,-0.3039,-0.3033,-0.3026,-0.2974,-0.3008,-0.3009,-0.2992,-0.2962,-0.2957,-0.2953,-0.3,-0.3,-0.3,0,0,-0.2563,-0.2644,-0.2656,-0.2713,-0.2791,-0.285,-0.2864,-0.2947,-0.2979,-0.3008,-0.3026,-0.3026,-0.3033,-0.3029,-0.3026,-0.3027,-0.2986,-0.3027,-0.3008,-0.298,-0.2975,-0.2971,-0.2901,-0.289,-0.3021,-0.3021,-0.3021,0,-0.2501,-0.2583,-0.266,-0.2695,-0.2751,-0.2831,-0.2868,-0.2906,-0.2974,-0.3006,-0.3007,-0.3035,-0.3024,-0.3023,-0.3022,-0.3025,-0.2993,-0.3004,-0.2979,-0.2975,-0.297,-0.2899,-0.2888,-0.3021,-0.3021,-0.3021,-0.3021,0,-0.2472,-0.2541,-0.2552,-0.2643,-0.2695,-0.2739,-0.2831,-0.2875,-0.293,-0.2974,-0.3001,-0.2999,-0.3017,-0.3011,-0.3011,-0.2985,-0.2965,-0.2989,-0.2972,-0.2966,-0.2892,-0.2879,-0.3021,-0.3021,-0.3021,-0.3021,0,0,-0.233,-0.2502,-0.2504,-0.2586,-0.2692,-0.2748,-0.2794,-0.2892,-0.2933,-0.2965,-0.3007,-0.2997,-0.3006,-0.3003,-0.3003,-0.2965,-0.2895,-0.2958,-0.2956,-0.2879,-0.2798,-0.2566,-0.2531,-0.2921,-0.292,-0.2919,-0.2749,0,-0.2293,-0.2395,-0.2473,-0.2566,-0.2657,-0.2752,-0.28,-0.2875,-0.2936,-0.2985,-0.2987,-0.3008,-0.3002,-0.3004,-0.2968,-0.2928,-0.2867,-0.2936,-0.2822,-0.2817,-0.2606,-0.251,-0.2224,-0.2029,-0.2737,-0.2735,-0.2734,0,-0.2246,-0.2356,-0.2455,-0.2637,-0.2673,-0.2716,-0.2856,-0.29,-0.2964,-0.3,-0.3013,-0.3022,-0.2982,-0.2977,-0.2871,-0.2919,-0.2847,-0.2799,-0.2792,-0.2562,-0.2562,-0.2156,-0.1981,-0.1889,-0.2715,-0.2716,-0.2717,0,-0.219,-0.2344,-0.2453,-0.2508,-0.2688,-0.2743,-0.2823,-0.2907,-0.2952,-0.3003,-0.3004,-0.2999,-0.2959,-0.2902,-0.2785,-0.2839,-0.2633,-0.2708,-0.2423,-0.2406,-0.2126,-0.2085,-0.1834,-0.2606,-0.2606,-0.2607,-0.2607,0,-0.2168,-0.2255,-0.245,-0.2513,-0.2639,-0.2742,-0.2824,-0.2902,-0.2952,-0.2948,-0.2997,-0.2939,-0.2935,-0.2824,-0.2758,-0.2499,-0.2607,-0.2365,-0.2329,-0.2115,-0.2077,-0.1958,-0.2075,-0.26,-0.2602,-0.2603,-0.2604,0,-0.2111,-0.2225,-0.2374,-0.2569,-0.2625,-0.2715,-0.2842,-0.2878,-0.2924,-0.2909,-0.2911,-0.2881,-0.2695,-0.2633,-0.2493,-0.2402,-0.2153,-0.2123,-0.1838,-0.1768,-0.1419,-0.155,-0.1454,-0.1441,-0.1787,-0.178,-0.1774,0,-0.2106,-0.2178,-0.2394,-0.2466,-0.2562,-0.2693,-0.2752,-0.2862,-0.2866,-0.2821,-0.2774,-0.2626,-0.2397,-0.2092,-0.1914,-0.1691,-0.183,-0.1358,-0.1401,-0.1286,-0.1411,-0.164,-0.1659,-0.1038,-0.1027,-0.1018,-0.101,0,-0.2105,-0.2165,-0.2281,-0.2421,-0.2521,-0.2608,-0.2685,-0.2681,-0.2719,-0.2623,-0.2393,-0.2194,-0.1869,-0.1411,-0.1163,-0.108,-0.1295,-0.1154,-0.1117,-0.0834,-0.0989,-0.0994,-0.1274,-0.0926,-0.0935,-0.0941,-0.0945,-0.0949,-0.2065,-0.2135,-0.2239,-0.236,-0.2442,-0.2431,-0.2362,-0.2358,-0.2235,-0.1941,-0.1946,-0.1472,-0.1007,-0.0546,-0.0511,-0.0257,-0.0648,-0.0187,-0.0363,-0.061,-0.056,-0.0614,-0.0188,-0.0192,-0.0195,-0.0198,-0.0201,0,-0.1982,-0.2053,-0.2162,-0.2237,-0.2195,-0.2286,-0.2217,-0.2026,-0.1703,-0.1467,-0.1125,-0.0452,0.008,0.0282,0.0646,0.0625,0.0346,0.0487,0.0233,0.0163,0.0147,0.0232,0.087,0.087,0.087,0.087,0.0869,0.0869,-0.1929,-0.1965,-0.202,-0.1936,-0.1939,-0.1725,-0.1584,-0.1313,-0.1052,-0.0444,-0.0008,0.0224,0.056,0.1046,0.1239,0.1126,0.0792,0.0724,0.0449,0.0493,0.0415,0.034,0.0405,0.1069,0.1068,0.0593,0.0589,0.0586]},{"header":{"parameterUnit":"m.s-1","parameterCategory":2,"la1":30.2991,"la2":30.254,"lo1":-89.0895,"lo2":-89.0444,"dy":0.0017,"dx":0.0017,"nx":28,"ny":28,"refTime":"2025-07-22T09:00:00:Z","depth":"0","parameterNumber":3,"parameterNumberName":"V-component_of_CURRENTS"},"data":[0,0,0,0,0,0,0,0,0,0,0,0,0,0,0,0,0,0,0,0,0,0,0,0,0,0,0,0,0,0,0,0,0,0,0,0,0,0,0,0,0,0,0,0,0,0,0,0,0,0,0,0,0,0,0,0,0,0,-0.1242,-0.124,0,-0.1121,-0.112,-0.1119,-0.1057,-0.1057,-0.1057,-0.1056,-0.0898,-0.0894,-0.089,0,0,0,0,0,0,0,0,0,0,0,0,0,-0.1283,-0.1283,-0.1242,-0.124,-0.1238,-0.1121,-0.112,-0.1119,-0.1057,-0.1057,-0.1056,-0.1056,-0.0899,-0.0894,-0.089,0,0,0,0,0,0,0,0,0,0,0,0,0,-0.1228,-0.1284,-0.1242,-0.1191,-0.1185,-0.1122,-0.112,-0.1118,-0.1058,-0.1057,-0.1056,-0.1056,-0.09,-0.0895,-0.0889,-0.0865,0,0,-0.0871,-0.0869,0,0,0,0,0,0,0,0,-0.1231,-0.1227,-0.12,-0.1194,-0.1187,-0.1101,-0.1076,-0.103,-0.1058,-0.111,-0.1056,-0.1056,-0.096,-0.0949,-0.0934,-0.0857,-0.0851,-0.0871,-0.0867,-0.0865,-0.0863,0,0,0,0,0,0,0,-0.1235,-0.1231,-0.1198,-0.1198,-0.119,-0.1127,-0.112,-0.1067,-0.1042,-0.1105,-0.1099,-0.1081,-0.0957,-0.0939,-0.0929,-0.0848,-0.0871,-0.0866,-0.0862,-0.086,-0.0761,-0.0761,0,0,0,0,0,0,-0.1251,-0.1235,-0.1201,-0.1194,-0.1204,-0.1127,-0.1119,-0.1132,-0.1043,-0.1028,-0.1081,-0.1078,-0.095,-0.0936,-0.0923,-0.0947,-0.0865,-0.0859,-0.0856,-0.076,-0.0761,-0.0762,0,0,0,0,0,0,-0.1253,-0.1251,-0.1206,-0.1206,-0.1196,-0.1128,-0.1141,-0.113,-0.111,-0.1024,-0.1009,-0.1073,-0.0949,-0.0931,-0.0893,-0.0938,-0.0857,-0.0852,-0.0759,-0.076,-0.0761,-0.0956,0,0,0,0,0,0,-0.1255,-0.1253,-0.126,-0.1209,-0.1197,-0.1182,-0.1141,-0.1128,-0.1098,-0.1093,-0.1012,-0.0997,-0.0947,-0.0903,-0.0888,-0.0928,-0.0847,-0.0758,-0.0759,-0.0761,-0.0949,-0.0964,-0.0977,0,0,0,0,0,-0.1258,-0.1275,-0.1262,-0.1257,-0.1213,-0.1182,-0.1171,-0.1121,-0.1098,-0.11,-0.1052,-0.1,-0.0902,-0.0899,-0.0881,-0.0921,-0.0757,-0.0759,-0.0761,-0.0943,-0.0961,-0.0977,0,0,0,0,0,0,-0.1286,-0.1268,-0.1254,-0.1262,-0.123,-0.1171,-0.1161,-0.1127,-0.1089,-0.1083,-0.1009,-0.0991,-0.0975,-0.0911,-0.091,-0.0893,-0.0821,-0.0819,-0.0965,-0.0982,-0.0996,-0.1052,-0.0842,0,0,0,0,0,-0.13,-0.1315,-0.1277,-0.1281,-0.1275,-0.122,-0.1197,-0.1167,-0.1124,-0.1107,-0.106,-0.1004,-0.0968,-0.0946,-0.0897,-0.0886,-0.0822,-0.0896,-0.091,-0.0923,-0.0955,-0.0888,-0.0901,-0.0768,-0.0768,-0.0768,0,0,-0.1307,-0.1299,-0.1304,-0.1288,-0.1262,-0.1274,-0.1207,-0.1185,-0.12,-0.1095,-0.1107,-0.1048,-0.0973,-0.0972,-0.0958,-0.0926,-0.0926,-0.0926,-0.0938,-0.0962,-0.0892,-0.0905,-0.0917,-0.0769,-0.0769,-0.0769,0,0,-0.1353,-0.1333,-0.1375,-0.1357,-0.1327,-0.1299,-0.13,-0.1259,-0.125,-0.1239,-0.1182,-0.1167,-0.1087,-0.1078,-0.1052,-0.1109,-0.1,-0.1068,-0.1195,-0.1131,-0.1143,-0.1152,-0.1092,-0.1094,-0.1081,-0.1082,-0.1082,0,-0.1357,-0.1417,-0.1375,-0.1407,-0.1399,-0.1326,-0.1363,-0.1345,-0.1298,-0.1305,-0.1263,-0.1211,-0.1154,-0.1181,-0.1208,-0.1151,-0.1077,-0.1146,-0.1154,-0.1162,-0.1168,-0.1104,-0.1104,-0.1091,-0.109,-0.1089,-0.1088,0,-0.1448,-0.1482,-0.15,-0.1533,-0.1514,-0.1525,-0.1495,-0.1493,-0.1463,-0.1445,-0.1456,-0.1398,-0.1366,-0.1353,-0.1301,-0.1329,-0.125,-0.1179,-0.1124,-0.1194,-0.1121,-0.1117,-0.1105,-0.1101,-0.1099,-0.1096,0,0,-0.149,-0.1559,-0.1563,-0.1604,-0.1581,-0.158,-0.1608,-0.162,-0.1627,-0.1619,-0.1647,-0.164,-0.1598,-0.1568,-0.1509,-0.1483,-0.1472,-0.1361,-0.1353,-0.1327,-0.1317,-0.1172,-0.1153,-0.1382,-0.1382,-0.1383,-0.1251,0,-0.1577,-0.1687,-0.1684,-0.1761,-0.181,-0.1752,-0.1773,-0.1761,-0.1725,-0.1727,-0.1722,-0.1704,-0.1679,-0.165,-0.1639,-0.1476,-0.147,-0.1514,-0.1232,-0.1225,-0.1107,-0.1147,-0.102,-0.0883,-0.1247,-0.1246,-0.1245,0,-0.1674,-0.1736,-0.1844,-0.1892,-0.1903,-0.1928,-0.1921,-0.193,-0.1906,-0.1862,-0.1874,-0.182,-0.1822,-0.1759,-0.1627,-0.1638,-0.1521,-0.142,-0.141,-0.121,-0.1074,-0.0866,-0.0862,-0.0843,-0.1239,-0.1239,-0.124,0,-0.1735,-0.1841,-0.1937,-0.195,-0.1986,-0.2019,-0.203,-0.1991,-0.1962,-0.195,-0.1887,-0.1898,-0.1824,-0.1742,-0.1556,-0.1565,-0.1362,-0.133,-0.1125,-0.1112,-0.0921,-0.089,-0.0886,-0.1274,-0.1274,-0.1275,-0.1275,0,-0.1826,-0.1901,-0.1986,-0.2023,-0.2104,-0.2101,-0.2125,-0.2109,-0.2049,-0.1961,-0.1971,-0.1866,-0.1799,-0.1669,-0.1562,-0.131,-0.136,-0.1164,-0.1073,-0.0981,-0.0959,-0.0861,-0.0878,-0.127,-0.1271,-0.1272,-0.1273,0,-0.1887,-0.1944,-0.2047,-0.2118,-0.2134,-0.2194,-0.2164,-0.2133,-0.208,-0.1955,-0.194,-0.181,-0.1604,-0.1535,-0.1327,-0.1241,-0.0979,-0.0979,-0.0884,-0.0785,-0.0581,-0.0612,-0.0444,-0.0345,-0.0744,-0.0739,-0.0736,0,-0.1935,-0.2001,-0.2091,-0.2119,-0.2162,-0.2218,-0.2187,-0.215,-0.2043,-0.186,-0.1753,-0.1594,-0.1351,-0.1064,-0.0929,-0.075,-0.076,-0.0549,-0.0576,-0.057,-0.0538,-0.0546,-0.0478,-0.0401,-0.0395,-0.039,-0.0386,0,-0.2006,-0.2035,-0.21,-0.2142,-0.2157,-0.2126,-0.2072,-0.1977,-0.1832,-0.1654,-0.1327,-0.1152,-0.0915,-0.0634,-0.0491,-0.0387,-0.0463,-0.0437,-0.0449,-0.0299,-0.0288,-0.0145,-0.0507,-0.0341,-0.0346,-0.0349,-0.0351,-0.0353,-0.2013,-0.2074,-0.2111,-0.215,-0.2111,-0.1943,-0.1811,-0.1658,-0.14,-0.0993,-0.0927,-0.052,-0.039,-0.0131,-0.0088,0.0015,-0.0069,0.0047,0.0001,-0.0016,0.0093,-0.0179,0.0106,0.0105,0.0103,0.0102,0.01,0,-0.1991,-0.205,-0.2089,-0.2038,-0.1876,-0.1877,-0.1622,-0.1379,-0.0953,-0.0621,-0.0255,0.0202,0.0315,0.0327,0.0366,0.0407,0.0424,0.0402,0.0367,0.0413,0.0171,0.0197,0.0538,0.0538,0.0538,0.0538,0.0538,0.0538,-0.197,-0.2015,-0.2036,-0.1793,-0.1676,-0.1319,-0.1092,-0.0753,-0.0438,0.0223,0.0648,0.0889,0.0934,0.0616,0.0538,0.0555,0.0609,0.0652,0.0622,0.0365,0.0326,0.0287,0.0305,0.0663,0.0663,0.0935,0.0937,0.0938]}],[{"header":{"parameterUnit":"m.s-1","parameterCategory":2,"la1":30.2991,"la2":30.254,"lo1":-89.0895,"lo2":-89.0444,"dy":0.0017,"dx":0.0017,"nx":28,"ny":28,"refTime":"2025-07-22T09:00:00:Z","depth":"2","parameterNumber":2,"parameterNumberName":"U-component_of_CURRENTS"},"data":[0,0,0,0,0,0,0,0,0,0,0,0,0,0,0,0,0,0,0,0,0,0,0,0,0,0,0,0,0,0,0,0,0,0,0,0,0,0,0,0,0,0,0,0,0,0,0,0,0,0,0,0,0,0,0,0,0,0,-0.1664,-0.1664,0,-0.165,-0.1649,-0.1648,-0.1703,-0.1705,-0.1707,-0.1709,-0.1871,-0.1874,-0.1876,0,0,0,0,0,0,0,0,0,0,0,0,0,-0.17,-0.1699,-0.1664,-0.1664,-0.1664,-0.165,-0.1649,-0.1648,-0.1702,-0.1705,-0.1707,-0.171,-0.1871,-0.1874,-0.1876,0,0,0,0,0,0,0,0,0,0,0,0,0,-0.1681,-0.1699,-0.1664,-0.1693,-0.1696,-0.165,-0.1649,-0.1648,-0.1702,-0.1705,-0.1708,-0.1711,-0.187,-0.1873,-0.1877,-0.1838,0,0,-0.1888,-0.189,0,0,0,0,0,0,0,0,-0.1682,-0.1679,-0.1688,-0.1691,-0.1694,-0.1685,-0.1722,-0.1722,-0.1701,-0.1695,-0.1709,-0.1712,-0.1826,-0.1834,-0.1815,-0.1846,-0.1853,-0.1888,-0.1891,-0.1892,-0.1893,0,0,0,0,0,0,0,-0.1683,-0.168,-0.1654,-0.1689,-0.1692,-0.1694,-0.1695,-0.1721,-0.1743,-0.1696,-0.1701,-0.1705,-0.1829,-0.1811,-0.182,-0.1855,-0.1888,-0.1891,-0.1894,-0.1895,-0.1798,-0.1793,0,0,0,0,0,0,-0.1692,-0.168,-0.1654,-0.1654,-0.17,-0.1692,-0.1692,-0.1681,-0.1739,-0.1751,-0.1703,-0.1708,-0.1803,-0.1816,-0.1826,-0.1838,-0.1892,-0.1896,-0.1898,-0.1802,-0.1797,-0.1792,0,0,0,0,0,0,-0.1693,-0.1689,-0.1655,-0.1672,-0.1668,-0.1688,-0.1676,-0.1679,-0.1692,-0.1744,-0.1759,-0.1716,-0.1806,-0.1821,-0.1811,-0.1844,-0.1897,-0.19,-0.1808,-0.1801,-0.1794,-0.1828,0,0,0,0,0,0,-0.1693,-0.1689,-0.1693,-0.1672,-0.1668,-0.1627,-0.1673,-0.1677,-0.1691,-0.1698,-0.1759,-0.1775,-0.181,-0.1804,-0.1814,-0.185,-0.1903,-0.1814,-0.1805,-0.1796,-0.1833,-0.1823,-0.1814,0,0,0,0,0,-0.1694,-0.1677,-0.1692,-0.1691,-0.1669,-0.1626,-0.1623,-0.1646,-0.1689,-0.1673,-0.1686,-0.1775,-0.1755,-0.1803,-0.1816,-0.1854,-0.1819,-0.1807,-0.1797,-0.1837,-0.1825,-0.1814,0,0,0,0,0,0,-0.1697,-0.1681,-0.1698,-0.1679,-0.1659,-0.1638,-0.1631,-0.165,-0.1645,-0.1669,-0.1721,-0.1734,-0.1739,-0.1746,-0.1798,-0.1777,-0.1799,-0.179,-0.1824,-0.1814,-0.1804,-0.1847,-0.1906,0,0,0,0,0,-0.1698,-0.1682,-0.1665,-0.1652,-0.1641,-0.1641,-0.1635,-0.1649,-0.1641,-0.1645,-0.1679,-0.1692,-0.1692,-0.1716,-0.171,-0.171,-0.1717,-0.1725,-0.1716,-0.1709,-0.1737,-0.1725,-0.1721,-0.1756,-0.1756,-0.1757,0,0,-0.1697,-0.1687,-0.1681,-0.1652,-0.1641,-0.1633,-0.1643,-0.1631,-0.1643,-0.1664,-0.1682,-0.1671,-0.1673,-0.1663,-0.1667,-0.1692,-0.1688,-0.1695,-0.1692,-0.1724,-0.1714,-0.1712,-0.171,-0.1749,-0.175,-0.1751,0,0,-0.1677,-0.1673,-0.1655,-0.164,-0.1629,-0.1629,-0.1632,-0.1615,-0.1625,-0.1612,-0.1626,-0.1616,-0.1624,-0.1628,-0.1635,-0.1559,-0.1631,-0.1552,-0.1578,-0.1565,-0.1566,-0.1566,-0.1544,-0.1543,-0.1561,-0.1561,-0.1561,0,-0.1687,-0.1665,-0.1641,-0.1625,-0.1629,-0.1635,-0.163,-0.1628,-0.1615,-0.1616,-0.1623,-0.1598,-0.1615,-0.1615,-0.1584,-0.156,-0.1549,-0.1648,-0.1566,-0.1566,-0.1567,-0.1544,-0.1543,-0.1562,-0.1562,-0.1562,-0.1562,0,-0.1645,-0.1651,-0.1633,-0.1631,-0.1621,-0.1611,-0.1613,-0.1613,-0.1635,-0.1636,-0.1622,-0.1597,-0.1592,-0.1581,-0.158,-0.1577,-0.1565,-0.1559,-0.1629,-0.1568,-0.1544,-0.1542,-0.1562,-0.1562,-0.1562,-0.1562,0,0,-0.1611,-0.1612,-0.161,-0.1618,-0.1631,-0.1606,-0.1633,-0.1634,-0.1651,-0.164,-0.1644,-0.1626,-0.1619,-0.1616,-0.1602,-0.1599,-0.1584,-0.159,-0.1589,-0.1628,-0.155,-0.1405,-0.1388,-0.1577,-0.1577,-0.1577,-0.1526,0,-0.1598,-0.1587,-0.159,-0.1596,-0.1596,-0.1615,-0.1629,-0.1638,-0.1651,-0.1647,-0.164,-0.1633,-0.1632,-0.1627,-0.1623,-0.1598,-0.1582,-0.1598,-0.155,-0.1549,-0.1479,-0.1382,-0.134,-0.1279,-0.1525,-0.1524,-0.1524,0,-0.1557,-0.1563,-0.1569,-0.1588,-0.1584,-0.159,-0.1612,-0.1616,-0.1633,-0.1646,-0.1656,-0.1652,-0.1656,-0.1643,-0.162,-0.1632,-0.1596,-0.1572,-0.1569,-0.1434,-0.1399,-0.1375,-0.1266,-0.1521,-0.1521,-0.1521,-0.1521,0,-0.1528,-0.1542,-0.1553,-0.1558,-0.1581,-0.1583,-0.1588,-0.1612,-0.1631,-0.1643,-0.1659,-0.1665,-0.1654,-0.1639,-0.1589,-0.1618,-0.1531,-0.1563,-0.1394,-0.1384,-0.1337,-0.1321,-0.1527,-0.1527,-0.1527,-0.1528,-0.1528,0,-0.1501,-0.1499,-0.1539,-0.1533,-0.1531,-0.155,-0.1544,-0.1564,-0.1612,-0.161,-0.1644,-0.1624,-0.1654,-0.1606,-0.158,-0.1456,-0.1522,-0.1385,-0.1354,-0.1334,-0.1318,-0.1529,-0.153,-0.1526,-0.1526,-0.1527,-0.1527,0,-0.1454,-0.148,-0.1481,-0.151,-0.1515,-0.1496,-0.1523,-0.1536,-0.158,-0.1584,-0.1599,-0.1615,-0.1525,-0.1507,-0.1449,-0.1413,-0.1331,-0.126,-0.1219,-0.1182,-0.1209,-0.1211,-0.1115,-0.111,-0.1105,-0.1101,-0.1097,0,-0.1428,-0.1441,-0.1458,-0.1448,-0.1454,-0.1444,-0.1455,-0.1512,-0.154,-0.1539,-0.154,-0.1475,-0.1356,-0.1209,-0.1136,-0.1039,-0.1131,-0.097,-0.1011,-0.1184,-0.1164,-0.1174,-0.1182,-0.0966,-0.0962,-0.0959,-0.0956,0,-0.1393,-0.1406,-0.1395,-0.1398,-0.1393,-0.1385,-0.1401,-0.1428,-0.1469,-0.1445,-0.1345,-0.124,-0.108,-0.0923,-0.0815,-0.0776,-0.0994,-0.0891,-0.1085,-0.105,-0.1031,-0.1015,-0.1031,-0.0925,-0.0928,-0.0931,-0.0932,-0.0933,-0.1353,-0.1334,-0.1338,-0.1313,-0.1329,-0.1318,-0.1241,-0.1266,-0.1226,-0.1144,-0.112,-0.091,-0.0929,-0.0659,-0.0593,-0.0574,-0.0654,-0.072,-0.0737,-0.0756,-0.072,-0.069,-0.0515,-0.0516,-0.0517,-0.0517,-0.0518,0,-0.1294,-0.1268,-0.1262,-0.1194,-0.1153,-0.1211,-0.1204,-0.1111,-0.0968,-0.0887,-0.0732,-0.0607,-0.0501,-0.0496,-0.0389,-0.0374,-0.0444,-0.0403,-0.0536,-0.0565,-0.0591,-0.0554,-0.0302,-0.0301,-0.03,-0.0299,0,0,-0.1249,-0.118,-0.1167,-0.1034,-0.1,-0.0899,-0.0853,-0.0736,-0.065,-0.0454,-0.0334,-0.0369,-0.0413,-0.0333,-0.0346,-0.0275,-0.0403,-0.0261,-0.0438,-0.0616,-0.064,-0.0782,-0.0754,0,0,0,0,0]},{"header":{"parameterUnit":"m.s-1","parameterCategory":2,"la1":30.2991,"la2":30.254,"lo1":-89.0895,"lo2":-89.0444,"dy":0.0017,"dx":0.0017,"nx":28,"ny":28,"refTime":"2025-07-22T09:00:00:Z","depth":"2","parameterNumber":3,"parameterNumberName":"V-component_of_CURRENTS"},"data":[0,0,0,0,0,0,0,0,0,0,0,0,0,0,0,0,0,0,0,0,0,0,0,0,0,0,0,0,0,0,0,0,0,0,0,0,0,0,0,0,0,0,0,0,0,0,0,0,0,0,0,0,0,0,0,0,0,0,-0.0311,-0.031,0,-0.0219,-0.0218,-0.0217,-0.0148,-0.0148,-0.0147,-0.0147,0.0031,0.0035,0.004,0,0,0,0,0,0,0,0,0,0,0,0,0,-0.0391,-0.039,-0.0311,-0.031,-0.0309,-0.0219,-0.0218,-0.0216,-0.0148,-0.0148,-0.0147,-0.0146,0.003,0.0035,0.004,0,0,0,0,0,0,0,0,0,0,0,0,0,-0.0332,-0.0389,-0.0312,-0.0266,-0.0261,-0.0219,-0.0218,-0.0216,-0.0148,-0.0148,-0.0147,-0.0146,0.0028,0.0034,0.0041,0.0067,0,0,0.006,0.0063,0,0,0,0,0,0,0,0,-0.0335,-0.0329,-0.0273,-0.0269,-0.0263,-0.0196,-0.018,-0.0118,-0.0148,-0.0189,-0.0147,-0.0146,-0.0038,-0.0026,-0.001,0.0075,0.0083,0.0061,0.0065,0.0068,0.0069,0,0,0,0,0,0,0,-0.0339,-0.0332,-0.0273,-0.0272,-0.0266,-0.0237,-0.0228,-0.0168,-0.0116,-0.0186,-0.0181,-0.0173,-0.0035,-0.0016,-0.0005,0.0085,0.0061,0.0066,0.007,0.0073,0.0144,0.0142,0,0,0,0,0,0,-0.0357,-0.0336,-0.0276,-0.0271,-0.03,-0.0236,-0.0226,-0.0217,-0.0118,-0.0104,-0.0174,-0.017,-0.0027,-0.0012,0.0002,0.0042,0.0068,0.0074,0.0077,0.0146,0.0144,0.0142,0,0,0,0,0,0,-0.0359,-0.0352,-0.028,-0.0303,-0.0291,-0.0236,-0.0226,-0.0215,-0.0194,-0.0111,-0.0094,-0.0163,-0.0026,-0.0007,0.0031,0.005,0.0077,0.0082,0.0148,0.0145,0.0143,0.0121,0,0,0,0,0,0,-0.0361,-0.0353,-0.0361,-0.0304,-0.0291,-0.025,-0.0226,-0.0214,-0.0191,-0.0185,-0.0096,-0.0079,-0.0024,0.0021,0.0038,0.0059,0.0087,0.0151,0.0147,0.0144,0.0124,0.0117,0.0112,0,0,0,0,0,-0.0364,-0.0364,-0.0361,-0.0355,-0.03,-0.025,-0.0241,-0.0198,-0.0192,-0.0177,-0.0143,-0.0082,0.0009,0.0025,0.0045,0.0069,0.0153,0.0148,0.0144,0.0127,0.0119,0.0112,0,0,0,0,0,0,-0.0399,-0.0356,-0.0351,-0.0339,-0.0301,-0.0239,-0.0227,-0.0204,-0.0166,-0.0167,-0.0095,-0.0076,-0.0035,-0.0001,0.0014,0.0067,0.0087,0.0086,0.0067,0.006,0.0054,0.0052,0.0093,0,0,0,0,0,-0.0415,-0.0406,-0.0358,-0.0351,-0.0334,-0.0288,-0.0267,-0.0239,-0.0197,-0.0179,-0.012,-0.0078,-0.004,-0.0006,0.0036,0.0074,0.013,0.0092,0.0086,0.0081,0.0086,0.0152,0.0154,0.0127,0.0127,0.0127,0,0,-0.0426,-0.0405,-0.0399,-0.036,-0.0329,-0.0305,-0.0272,-0.0241,-0.0222,-0.0165,-0.0124,-0.0088,-0.004,-0.0002,0.002,0.0035,0.0119,0.0075,0.0072,0.0079,0.0148,0.0151,0.0155,0.0124,0.0124,0.0125,0,0,-0.0436,-0.0426,-0.0418,-0.039,-0.0352,-0.0324,-0.0319,-0.0261,-0.0233,-0.0201,-0.0165,-0.013,-0.0062,-0.002,0.0006,-0.0015,0.0081,-0.0007,-0.0019,0.0046,0.005,0.0054,0.015,0.0163,-0.0004,-0.0004,-0.0004,0,-0.0458,-0.0443,-0.0407,-0.039,-0.0375,-0.0336,-0.0323,-0.0289,-0.0228,-0.0205,-0.0195,-0.0115,-0.0069,-0.0021,-0.0035,-0.0019,0.0038,0.0017,0.0044,0.0049,0.0054,0.0151,0.0166,-0.0006,-0.0005,-0.0005,-0.0005,0,-0.0446,-0.0448,-0.0439,-0.0414,-0.0388,-0.0373,-0.0325,-0.03,-0.0276,-0.0236,-0.0187,-0.0137,-0.0086,-0.0073,-0.0054,-0.0004,0.0034,0.0031,0.0076,0.0057,0.0158,0.0175,-0.0008,-0.0007,-0.0007,-0.0007,0,0,-0.0464,-0.0441,-0.0441,-0.044,-0.0405,-0.0377,-0.0356,-0.0313,-0.029,-0.0238,-0.0194,-0.0148,-0.0115,-0.0089,-0.0053,-0.0003,0.0086,0.0024,0.0028,0.0145,0.026,0.0224,0.0239,0.0094,0.0096,0.0097,0.0327,0,-0.0475,-0.0477,-0.0447,-0.0442,-0.0441,-0.04,-0.0379,-0.0335,-0.0293,-0.0237,-0.0182,-0.0128,-0.0122,-0.0092,-0.0044,0.0057,0.0123,0.0026,0.0239,0.0246,0.0237,0.0253,0.018,0.0371,0.0343,0.0346,0.0348,0,-0.0467,-0.048,-0.0494,-0.0473,-0.0462,-0.0446,-0.0405,-0.0374,-0.0297,-0.0261,-0.0203,-0.0144,-0.0055,-0.006,0.0118,0.0059,0.0151,0.0225,0.0236,0.022,0.0238,0.0378,0.0402,0.0376,0.0373,0.0371,0.0369,0,-0.0501,-0.0497,-0.0523,-0.0517,-0.0493,-0.0478,-0.0448,-0.0386,-0.0345,-0.0265,-0.0218,-0.0119,-0.0034,0.0068,0.0202,0.0179,0.0401,0.0397,0.0459,0.046,0.0448,0.0442,0.0518,0.0517,0.0517,0.0516,0.0515,0,-0.0518,-0.0525,-0.0546,-0.0553,-0.0562,-0.0514,-0.0487,-0.0446,-0.0366,-0.029,-0.0229,-0.0144,0.0,0.0138,0.0233,0.0399,0.0436,0.0473,0.0511,0.0435,0.0426,0.0454,0.0443,0.0525,0.0523,0.0521,0.052,0,-0.0539,-0.0551,-0.0581,-0.0587,-0.0581,-0.0582,-0.051,-0.048,-0.0405,-0.0301,-0.0266,-0.0113,0.0057,0.0188,0.0398,0.0462,0.0602,0.0644,0.0554,0.0574,0.0625,0.061,0.0774,0.0774,0.0775,0.0775,0.0775,0,-0.0551,-0.059,-0.0627,-0.0643,-0.0643,-0.063,-0.0613,-0.0525,-0.0463,-0.0272,-0.0209,-0.0027,0.0093,0.0357,0.0509,0.0683,0.0648,0.0696,0.0614,0.0627,0.0649,0.0634,0.0619,0.0622,0.0621,0.062,0.0619,0,-0.0602,-0.0631,-0.0654,-0.0713,-0.071,-0.0683,-0.0623,-0.058,-0.0435,-0.0335,-0.0154,-0.0045,0.022,0.0375,0.0563,0.064,0.0651,0.0684,0.0756,0.0529,0.0491,0.0509,0.0499,0.0612,0.0613,0.0614,0.0614,0.0614,-0.0639,-0.068,-0.0737,-0.0774,-0.0763,-0.0717,-0.0681,-0.0579,-0.0472,-0.0255,-0.0134,0.0054,0.02,0.0463,0.0562,0.0656,0.0688,0.0662,0.0663,0.0665,0.0567,0.0527,0.0641,0.0642,0.0643,0.0643,0.0644,0,-0.0698,-0.0733,-0.0788,-0.0799,-0.0783,-0.0757,-0.0674,-0.0614,-0.0476,-0.025,-0.0073,0.0093,0.0244,0.038,0.0545,0.0633,0.0622,0.0588,0.0544,0.055,0.0555,0.0449,0.0495,0.0495,0.0495,0.0495,0,0,-0.0723,-0.0776,-0.0813,-0.082,-0.0801,-0.0745,-0.0692,-0.0586,-0.0444,-0.0229,-0.0048,0.0149,0.0278,0.0347,0.0415,0.0464,0.0483,0.045,0.0556,0.0496,0.0501,0.0578,0.0419,0,0,0,0,0]}],[{"header":{"parameterUnit":"m.s-1","parameterCategory":2,"la1":30.2991,"la2":30.254,"lo1":-89.0895,"lo2":-89.0444,"dy":0.0017,"dx":0.0017,"nx":28,"ny":28,"refTime":"2025-07-22T09:00:00:Z","depth":"4","parameterNumber":2,"parameterNumberName":"U-component_of_CURRENTS"},"data":[0,0,0,0,0,0,0,0,0,0,0,0,0,0,0,0,0,0,0,0,0,0,0,0,0,0,0,0,0,0,0,0,0,0,0,0,0,0,0,0,0,0,0,0,0,0,0,0,0,0,0,0,0,0,0,0,0,0,-0.1103,-0.1103,0,-0.1089,-0.1089,-0.1089,-0.1123,-0.1124,-0.1125,-0.1126,-0.1131,-0.1131,-0.113,0,0,0,0,0,0,0,0,0,0,0,0,0,-0.1143,-0.1142,-0.1103,-0.1103,-0.1103,-0.1089,-0.1089,-0.1089,-0.1123,-0.1124,-0.1125,-0.1126,-0.1132,-0.1131,-0.113,0,0,0,0,0,0,0,0,0,0,0,0,0,-0.1129,-0.1142,-0.1103,-0.1116,-0.1117,-0.1089,-0.1089,-0.1089,-0.1123,-0.1124,-0.1125,-0.1126,-0.1132,-0.1131,-0.113,-0.1096,0,0,-0.1127,-0.1126,0,0,0,0,0,0,0,0,-0.113,-0.1128,-0.1115,-0.1115,-0.1116,-0.1108,-0.1105,-0.1092,-0.1122,-0.1123,-0.1126,-0.1127,-0.1123,-0.1123,-0.112,-0.1097,-0.1097,-0.1127,-0.1126,-0.1126,-0.1125,0,0,0,0,0,0,0,-0.1131,-0.1128,-0.11,-0.1114,-0.1115,-0.1117,-0.1117,-0.1103,-0.1117,-0.1123,-0.1125,-0.112,-0.1124,-0.112,-0.112,-0.1097,-0.1127,-0.1126,-0.1125,-0.1125,-0.1147,-0.1148,0,0,0,0,0,0,-0.1128,-0.1129,-0.11,-0.1099,-0.1124,-0.1115,-0.1115,-0.1111,-0.1117,-0.1119,-0.1118,-0.1121,-0.1122,-0.1121,-0.112,-0.1161,-0.1126,-0.1125,-0.1124,-0.1146,-0.1147,-0.1149,0,0,0,0,0,0,-0.1129,-0.1125,-0.1101,-0.1112,-0.1109,-0.1113,-0.1108,-0.111,-0.1126,-0.1113,-0.1116,-0.1135,-0.1123,-0.1122,-0.1133,-0.1158,-0.1124,-0.1123,-0.1144,-0.1146,-0.1148,-0.119,0,0,0,0,0,0,-0.113,-0.1126,-0.1131,-0.1112,-0.1108,-0.1101,-0.1106,-0.1108,-0.1118,-0.1123,-0.1127,-0.1128,-0.1124,-0.1134,-0.1132,-0.1156,-0.1122,-0.1143,-0.1145,-0.1147,-0.1187,-0.1193,-0.1198,0,0,0,0,0,-0.1131,-0.1127,-0.1131,-0.1128,-0.1112,-0.1101,-0.11,-0.1108,-0.1118,-0.1128,-0.1136,-0.1129,-0.1148,-0.1134,-0.1131,-0.1155,-0.1142,-0.1145,-0.1147,-0.1185,-0.1192,-0.1198,0,0,0,0,0,0,-0.1147,-0.1129,-0.1134,-0.1125,-0.1123,-0.1107,-0.1111,-0.1116,-0.1128,-0.1138,-0.1132,-0.1134,-0.1157,-0.1147,-0.1133,-0.1171,-0.1148,-0.115,-0.1178,-0.1184,-0.119,-0.1174,-0.1122,0,0,0,0,0,-0.1151,-0.1147,-0.1133,-0.113,-0.1128,-0.1123,-0.1123,-0.1129,-0.1129,-0.1137,-0.1143,-0.1152,-0.116,-0.1166,-0.1169,-0.1177,-0.115,-0.1196,-0.1202,-0.1207,-0.1193,-0.1175,-0.1177,-0.1157,-0.1157,-0.1157,0,0,-0.1158,-0.1146,-0.1147,-0.1134,-0.1132,-0.1135,-0.1128,-0.1131,-0.1146,-0.1133,-0.1164,-0.1168,-0.1167,-0.1188,-0.1198,-0.1186,-0.12,-0.121,-0.1214,-0.1197,-0.1178,-0.118,-0.1181,-0.1159,-0.1159,-0.1159,0,0,-0.1162,-0.1158,-0.1158,-0.1157,-0.1153,-0.1151,-0.1157,-0.1155,-0.117,-0.1186,-0.1192,-0.1207,-0.1218,-0.1224,-0.1227,-0.126,-0.123,-0.1274,-0.1286,-0.1271,-0.1271,-0.1272,-0.1244,-0.1241,-0.1277,-0.1277,-0.1277,0,-0.1176,-0.1167,-0.1158,-0.1158,-0.1159,-0.1162,-0.1167,-0.118,-0.119,-0.1195,-0.1207,-0.1226,-0.1233,-0.1246,-0.1269,-0.1271,-0.125,-0.1261,-0.1276,-0.1275,-0.1275,-0.1246,-0.1243,-0.128,-0.1279,-0.1279,-0.1279,0,-0.1172,-0.1179,-0.1177,-0.1182,-0.1185,-0.1188,-0.1197,-0.1214,-0.1231,-0.1239,-0.1262,-0.1269,-0.1275,-0.1294,-0.1292,-0.1302,-0.1285,-0.1283,-0.1254,-0.1279,-0.1248,-0.1243,-0.1283,-0.1282,-0.1281,-0.1281,0,0,-0.1166,-0.1175,-0.1177,-0.1185,-0.1196,-0.1195,-0.1222,-0.1233,-0.1241,-0.1271,-0.1275,-0.131,-0.1309,-0.1311,-0.1316,-0.131,-0.1302,-0.1299,-0.1297,-0.1262,-0.1255,-0.1161,-0.1147,-0.1303,-0.1302,-0.1302,-0.1236,0,-0.1169,-0.1174,-0.1179,-0.1199,-0.12,-0.1214,-0.1232,-0.1249,-0.1264,-0.1272,-0.1287,-0.1298,-0.1318,-0.132,-0.1321,-0.1305,-0.1292,-0.1319,-0.1243,-0.124,-0.1146,-0.1139,-0.13,-0.1232,-0.1231,-0.1231,-0.123,0,-0.1156,-0.1161,-0.1174,-0.1194,-0.1196,-0.1216,-0.1228,-0.1244,-0.1259,-0.1266,-0.1279,-0.1287,-0.1296,-0.1302,-0.1283,-0.1299,-0.1277,-0.1263,-0.126,-0.1147,-0.1137,-0.1202,-0.1221,-0.1222,-0.1223,-0.1223,-0.1224,0,-0.1132,-0.1157,-0.1166,-0.1174,-0.1197,-0.1211,-0.1227,-0.1243,-0.1242,-0.1258,-0.1249,-0.1268,-0.1263,-0.1253,-0.124,-0.1259,-0.1195,-0.1217,-0.1107,-0.11,-0.1187,-0.1187,-0.1182,-0.1182,-0.1182,-0.1183,-0.1183,0,-0.1108,-0.1121,-0.1161,-0.1163,-0.1169,-0.1199,-0.1202,-0.1215,-0.1222,-0.1199,-0.1243,-0.1216,-0.1249,-0.1224,-0.1218,-0.1136,-0.1177,-0.1089,-0.107,-0.1209,-0.1212,-0.1184,-0.1185,-0.118,-0.1181,-0.1181,-0.1182,0,-0.1067,-0.1095,-0.1108,-0.1144,-0.1153,-0.1157,-0.1176,-0.1165,-0.119,-0.1156,-0.1158,-0.1171,-0.1133,-0.1144,-0.1112,-0.1085,-0.1033,-0.0993,-0.1123,-0.1116,-0.0956,-0.0961,-0.0861,-0.0857,-0.0854,-0.0851,-0.0849,0,-0.1042,-0.1044,-0.1082,-0.1078,-0.1096,-0.1109,-0.1098,-0.1132,-0.1113,-0.1108,-0.1073,-0.1056,-0.1053,-0.0931,-0.0963,-0.092,-0.0916,-0.0887,-0.0937,-0.0928,-0.092,-0.093,-0.0939,-0.0843,-0.0842,-0.0841,-0.084,0,-0.0988,-0.1012,-0.1018,-0.1005,-0.1004,-0.0992,-0.0992,-0.097,-0.0983,-0.1026,-0.0951,-0.0921,-0.0866,-0.0853,-0.0816,-0.0797,-0.091,-0.0851,-0.0859,-0.0907,-0.0905,-0.0903,-0.0916,-0.0829,-0.083,-0.0831,-0.0832,0,-0.0948,-0.0934,-0.0938,-0.091,-0.0901,-0.0852,-0.0878,-0.0845,-0.0832,-0.0849,-0.0819,-0.0809,-0.0839,-0.0784,-0.0753,-0.072,-0.0721,-0.0713,-0.0728,-0.0742,-0.0735,-0.0718,-0.0546,0,0,0,0,0,-0.09,-0.0859,-0.0834,-0.0787,-0.0772,-0.0759,-0.0778,-0.0808,-0.0836,-0.0752,-0.0784,-0.0729,-0.0676,-0.0685,-0.0625,-0.0699,-0.0726,-0.0627,-0.0726,-0.0763,-0.0776,-0.0781,0,0,0,0,0,0,-0.0862,-0.084,-0.0801,-0.0674,-0.0619,-0.0583,-0.0591,-0.0625,-0.0596,-0.0645,-0.0625,-0.0668,-0.0636,-0.068,-0.0599,-0.06,-0.0645,-0.0638,-0.0636,-0.0755,-0.0767,-0.0778,-0.0788,0,0,0,0,0]},{"header":{"parameterUnit":"m.s-1","parameterCategory":2,"la1":30.2991,"la2":30.254,"lo1":-89.0895,"lo2":-89.0444,"dy":0.0017,"dx":0.0017,"nx":28,"ny":28,"refTime":"2025-07-22T09:00:00:Z","depth":"4","parameterNumber":3,"parameterNumberName":"V-component_of_CURRENTS"},"data":[0,0,0,0,0,0,0,0,0,0,0,0,0,0,0,0,0,0,0,0,0,0,0,0,0,0,0,0,0,0,0,0,0,0,0,0,0,0,0,0,0,0,0,0,0,0,0,0,0,0,0,0,0,0,0,0,0,0,-0.0176,-0.0176,0,-0.0141,-0.014,-0.014,-0.0128,-0.0128,-0.0128,-0.0128,-0.013,-0.013,-0.013,0,0,0,0,0,0,0,0,0,0,0,0,0,-0.0216,-0.0215,-0.0176,-0.0176,-0.0175,-0.0141,-0.014,-0.014,-0.0128,-0.0128,-0.0128,-0.0128,-0.013,-0.013,-0.013,0,0,0,0,0,0,0,0,0,0,0,0,0,-0.0193,-0.0215,-0.0177,-0.0164,-0.0162,-0.0141,-0.014,-0.014,-0.0128,-0.0128,-0.0128,-0.0128,-0.013,-0.013,-0.013,-0.0131,0,0,-0.013,-0.013,0,0,0,0,0,0,0,0,-0.0194,-0.0192,-0.0166,-0.0164,-0.0163,-0.0137,-0.0155,-0.0138,-0.0128,-0.0143,-0.0128,-0.0128,-0.0135,-0.0134,-0.013,-0.0132,-0.0132,-0.013,-0.013,-0.0131,-0.0131,0,0,0,0,0,0,0,-0.0196,-0.0193,-0.0164,-0.0165,-0.0163,-0.0153,-0.015,-0.0152,-0.0141,-0.0141,-0.014,-0.0133,-0.0134,-0.013,-0.013,-0.0132,-0.013,-0.0131,-0.0131,-0.0131,-0.0103,-0.0103,0,0,0,0,0,0,-0.0198,-0.0195,-0.0165,-0.0163,-0.0177,-0.0152,-0.0149,-0.0147,-0.014,-0.0139,-0.0133,-0.0133,-0.0129,-0.013,-0.013,-0.0108,-0.0131,-0.0131,-0.0131,-0.0104,-0.0103,-0.0102,0,0,0,0,0,0,-0.0199,-0.0196,-0.0167,-0.0176,-0.0172,-0.0152,-0.0149,-0.0146,-0.0142,-0.0133,-0.0133,-0.0132,-0.0129,-0.013,-0.0126,-0.0109,-0.0131,-0.0131,-0.0105,-0.0104,-0.0103,-0.008,0,0,0,0,0,0,-0.02,-0.0196,-0.0201,-0.0177,-0.0171,-0.0154,-0.0149,-0.0145,-0.0137,-0.0136,-0.0133,-0.0133,-0.0129,-0.0126,-0.0126,-0.011,-0.0131,-0.0106,-0.0105,-0.0103,-0.0082,-0.0079,-0.0076,0,0,0,0,0,-0.0202,-0.0201,-0.0202,-0.0198,-0.0177,-0.0154,-0.0151,-0.0137,-0.0137,-0.0135,-0.0129,-0.0133,-0.0116,-0.0126,-0.0126,-0.0109,-0.0107,-0.0105,-0.0103,-0.0084,-0.0079,-0.0076,0,0,0,0,0,0,-0.0218,-0.0198,-0.0199,-0.0193,-0.0177,-0.0151,-0.0148,-0.014,-0.0133,-0.0137,-0.013,-0.0129,-0.0118,-0.0118,-0.0129,-0.0096,-0.0109,-0.0108,-0.0094,-0.009,-0.0087,-0.0092,-0.0131,0,0,0,0,0,-0.0225,-0.0222,-0.02,-0.0197,-0.0191,-0.0173,-0.0164,-0.0156,-0.0142,-0.0139,-0.0131,-0.0122,-0.011,-0.0105,-0.0099,-0.0088,-0.0076,-0.0074,-0.0071,-0.0068,-0.0072,-0.0034,-0.0028,-0.0096,-0.0096,-0.0096,0,0,-0.0231,-0.022,-0.0219,-0.0201,-0.019,-0.0174,-0.0168,-0.0156,-0.0141,-0.0142,-0.0124,-0.0116,-0.0105,-0.0086,-0.008,-0.0086,-0.004,-0.0066,-0.0064,-0.0069,-0.0032,-0.0025,-0.0019,-0.0095,-0.0095,-0.0096,0,0,-0.0232,-0.0232,-0.0227,-0.0214,-0.0197,-0.0182,-0.0179,-0.0154,-0.0144,-0.013,-0.0118,-0.0098,-0.0089,-0.0065,-0.0055,-0.0031,-0.0026,-0.003,-0.0016,0.0021,0.0027,0.0033,0.0065,0.0073,-0.0025,-0.0025,-0.0025,0,-0.0243,-0.0233,-0.0222,-0.021,-0.02,-0.0184,-0.0174,-0.0156,-0.0131,-0.0124,-0.0124,-0.0086,-0.0073,-0.004,-0.0025,-0.0023,-0.0007,-0.0032,0.0026,0.0031,0.0036,0.0068,0.0076,-0.0024,-0.0024,-0.0024,-0.0024,0,-0.0231,-0.023,-0.0224,-0.0206,-0.0192,-0.0183,-0.0155,-0.0143,-0.0131,-0.0113,-0.0086,-0.0062,-0.0041,-0.0022,-0.0017,0.0029,0.0027,0.0024,0.0015,0.0044,0.0076,0.0084,-0.0022,-0.0022,-0.0023,-0.0023,0,0,-0.0241,-0.0223,-0.0223,-0.0227,-0.0193,-0.0187,-0.0156,-0.0131,-0.0126,-0.0091,-0.0074,-0.0027,-0.0019,-0.0007,0.0013,0.0052,0.0112,0.0052,0.0054,0.0082,0.019,0.0167,0.0174,0.0117,0.0118,0.0119,0.0201,0,-0.0241,-0.0238,-0.0215,-0.0211,-0.021,-0.0184,-0.0163,-0.0139,-0.0118,-0.0097,-0.0055,-0.0037,-0.0011,-0.0006,0.0044,0.0084,0.0133,0.009,0.0158,0.016,0.0134,0.0182,0.0124,0.0207,0.0209,0.0211,0.0212,0,-0.0233,-0.0238,-0.024,-0.0237,-0.0234,-0.0223,-0.0206,-0.0186,-0.0144,-0.0128,-0.0088,-0.0062,0.0003,0.0013,0.0121,0.0089,0.0143,0.0183,0.0187,0.016,0.0152,0.017,0.0227,0.0226,0.0224,0.0223,0.0222,0,-0.026,-0.0253,-0.0267,-0.0263,-0.025,-0.0249,-0.0238,-0.0202,-0.0195,-0.015,-0.0141,-0.0066,-0.0035,0.0047,0.0138,0.0129,0.025,0.0247,0.0284,0.0283,0.0268,0.0261,0.0332,0.0332,0.0332,0.0332,0.0331,0,-0.0268,-0.028,-0.0291,-0.03,-0.0323,-0.0294,-0.0304,-0.0279,-0.0247,-0.0241,-0.0168,-0.0144,-0.0025,0.0056,0.0138,0.0237,0.0257,0.0296,0.0307,0.0276,0.027,0.0274,0.0267,0.0335,0.0334,0.0333,0.0333,0,-0.0291,-0.0296,-0.0325,-0.0335,-0.0339,-0.0361,-0.0353,-0.0361,-0.0318,-0.0305,-0.0292,-0.0193,-0.0085,0.0038,0.0175,0.023,0.0327,0.0361,0.0323,0.0329,0.0336,0.0329,0.0408,0.0408,0.0408,0.0408,0.0408,0,-0.03,-0.0321,-0.0365,-0.0395,-0.0404,-0.0426,-0.044,-0.0406,-0.0405,-0.0339,-0.0336,-0.0225,-0.0149,0.0036,0.0161,0.0327,0.0346,0.0392,0.0368,0.0344,0.0347,0.0339,0.0332,0.0408,0.0408,0.0408,0.0408,0,-0.0328,-0.0355,-0.0386,-0.045,-0.0486,-0.0514,-0.0523,-0.0524,-0.0481,-0.0444,-0.0367,-0.0259,-0.0131,0.0022,0.016,0.0273,0.0356,0.0392,0.0392,0.037,0.0344,0.0346,0.0339,0.0408,0.0408,0.0408,0.0408,0,-0.0359,-0.0397,-0.045,-0.0503,-0.0553,-0.0584,-0.0581,-0.0562,-0.0544,-0.0457,-0.0436,-0.0282,-0.0183,-0.0005,0.0114,0.0232,0.0253,0.0271,0.0278,0.028,0.0214,0.016,0.0185,0,0,0,0,0,-0.0387,-0.0433,-0.0491,-0.0554,-0.0602,-0.062,-0.0629,-0.0615,-0.0572,-0.0528,-0.0474,-0.0353,-0.0156,-0.0064,0.0051,0.0102,0.0264,0.0235,0.0285,0.0407,0.0407,0.0348,0,0,0,0,0,0,-0.0414,-0.0472,-0.0501,-0.0581,-0.0621,-0.0666,-0.0671,-0.0641,-0.0599,-0.0537,-0.0426,-0.0349,-0.015,-0.0219,0.0046,0.0084,0.0123,0.034,0.0342,0.0407,0.0407,0.0407,0.0347,0,0,0,0,0]}]]